Location: Chervonnoye
(48.6000°N, 34.4000°E)
Time: 20:55:53
(UTC+00:00)

Cosmos 1943 Rocket - Pass Details

Date: 23 November 2020
Orbit: 811 x 845 km, 71.0° (Epoch: 27 January)

Event Time Altitude Azimuth Distance (km) Brightness Sun altitude
Rises 17:00:40 0° 329° (NNW) 3,353 5.7 -30.3°
Reaches altitude 10° 17:03:07 10° 327° (NNW) 2,420 5.0 -30.7°
Enters shadow 17:07:57 59° 281° (W) 952 2.6 -31.5°
